Location: Indian Lodge
(32.1088°N, 97.4892°W)
Time: 21:34:33
(UTC+00:00)

Daily predictions for brighter satellites

Satellite Brightness Start Highest point End
(mag) Time Altitude Azimuth Time Altitude Azimuth Time Altitude Azimuth
OAO 2 Rocket 3.3 12:05:30 22° W 12:08:51 77° NNW 12:14:00 10° ENE
Cosmos 1758 Rocket 3.9 12:07:15 10° S 12:11:39 69° E 12:16:01 10° NNE
NOSS 3-1 (C) 4.3 12:04:55 13° NW 12:12:18 72° WSW 12:21:40 10° SSE
Meteor 2-20 Rocket 4.3 12:09:05 10° N 12:14:48 86° E 12:20:32 10° S
BREEZE-M DEB (TANK) 3.9 12:11:14 10° SW 12:15:05 73° SE 12:29:12 10° NE
Cosmos 1484 Rocket 2.3 12:12:42 10° N 12:16:04 87° WNW 12:19:25 10° SSW
Cosmos 1898 Rocket 4.5 12:14:11 20° WNW 12:16:26 26° W 12:20:46 10° SSW
BREEZE-M DEB (TANK) 3.6 12:13:59 10° SW 12:20:40 74° SE 12:23:26 10° NE
Helios 1A Rocket 2.2 12:19:09 10° S 12:22:27 74° WSW 12:25:48 10° NNW
ISS -1.6 12:19:49 10° SSW 12:22:49 30° SE 12:25:48 10° ENE
IRS-1D 4.4 12:20:24 10° NNW 12:24:30 26° WNW 12:28:40 10° SW
[s.n.66875] 1.6 12:23:34 10° SW 12:26:04 68° SSE 12:28:36 10° ENE
[s.n.66873] 1.5 12:24:16 10° SW 12:26:46 69° SSE 12:29:18 10° ENE
[s.n.66876] 1.5 12:24:44 10° SW 12:27:14 71° SSE 12:29:46 10° ENE
[s.n.66874] 1.5 12:25:32 10° SW 12:28:03 72° SSE 12:30:35 10° ENE
OAO 3 Copernicus 4.4 12:24:50 16° WNW 12:28:48 61° N 12:33:45 10° E
[s.n.66872] 1.4 12:26:19 10° SW 12:28:50 74° SSE 12:31:23 10° ENE
[s.n.66871] 1.4 12:26:52 10° SW 12:29:24 75° SE 12:31:56 10° ENE
[s.n.66870] 1.4 12:27:41 10° SW 12:30:13 77° SSE 12:32:46 10° ENE
Cosmos 1833 4.3 12:25:25 10° SW 12:30:51 51° WNW 12:36:22 10° N
[s.n.66869] 1.4 12:28:28 10° SW 12:31:00 79° SE 12:33:33 10° ENE
Tiangong -1.0 12:29:06 16° W 12:31:10 32° SW 12:34:04 10° SSE
Cosmos 2360 Rocket 2.6 12:25:38 10° NNW 12:31:13 66° ENE 12:36:46 10° SSE
[s.n.66868] 1.3 12:29:06 10° SW 12:31:37 81° SSE 12:34:10 10° ENE
[s.n.66867] 1.3 12:29:53 10° SW 12:32:25 83° SSE 12:34:58 10° ENE
Cosmos 405 Rocket 2.7 12:29:46 10° SSW 12:32:48 37° W 12:35:52 10° N
COSMO-SKYMED 1 2.7 12:29:08 10° S 12:33:04 46° W 12:37:02 10° NNW
[s.n.66866] 1.3 12:30:38 10° SW 12:33:10 84° SE 12:35:43 10° ENE
[s.n.66865] 1.3 12:31:10 10° WSW 12:33:43 86° SE 12:36:16 10° ENE
Cosmos 1626 Rocket 3.7 12:29:40 10° SSW 12:33:57 50° W 12:38:14 10° N
[s.n.66860] 1.3 12:31:50 10° WSW 12:34:23 87° SSE 12:36:57 10° ENE
[s.n.66864] 1.2 12:32:28 10° WSW 12:35:01 88° E 12:37:34 10° ENE
OAO 3 Rocket 3.1 12:30:37 10° W 12:35:12 76° NNW 12:39:56 10° ENE
[s.n.66863] 1.2 12:33:04 10° WSW 12:35:36 90° NNW 12:38:10 10° ENE
[s.n.66861] 1.2 12:33:53 10° WSW 12:36:26 88° NNW 12:39:00 10° ENE
[s.n.66862] 1.2 12:34:32 10° WSW 12:37:05 86° NNW 12:39:39 10° ENE
Cosmos 2333 Rocket 2.2 12:31:44 10° NNW 12:37:28 70° WSW 12:43:07 10° S
[s.n.66859] 1.2 12:35:14 10° WSW 12:37:47 85° NNW 12:40:21 10° ENE
Cosmos-2242 3.3 12:33:53 10° NNW 12:37:51 41° W 12:41:46 10° SSW
[s.n.66858] 1.2 12:35:55 10° WSW 12:38:28 83° NNW 12:41:02 10° ENE
[s.n.66857] 1.2 12:36:29 10° WSW 12:39:03 82° NNW 12:41:37 10° ENE
[s.n.66856] 1.2 12:37:03 10° WSW 12:39:36 80° NW 12:42:10 10° ENE
USA 59 Rocket 1.8 12:36:56 12° WNW 12:40:08 22° WSW 12:44:41 10° SSW
[s.n.66855] 1.2 12:37:44 10° WSW 12:40:17 79° NNW 12:42:51 10° NE
[s.n.66854] 1.2 12:38:19 10° WSW 12:40:52 77° NNW 12:43:27 10° NE
[s.n.66853] 1.2 12:39:03 10° WSW 12:41:36 76° NNW 12:44:10 10° NE
Okean 1 3.5 12:38:24 10° NNW 12:41:43 38° W 12:45:01 10° SSW
[s.n.66852] 1.2 12:39:49 10° WSW 12:42:22 74° NNW 12:44:56 10° NE
[s.n.66851] 1.2 12:40:20 10° WSW 12:42:53 73° NNW 12:45:27 10° NE
[s.n.66850] 1.2 12:40:53 10° WSW 12:43:26 72° NNW 12:46:00 10° NE
[s.n.66849] 1.2 12:41:36 10° WSW 12:44:09 70° NNW 12:46:43 10° NE
[s.n.66848] 1.2 12:42:08 10° WSW 12:44:41 69° NNW 12:47:15 10° NE
SL-4 R/B 4.0 12:45:22 10° N 12:46:31 11° NNE 12:47:39 10° NE
Cosmos 2219 Rocket 3.1 12:42:20 10° N 12:47:49 51° ENE 12:53:15 10° SE
ARIANE 5 R/B 3.2 12:46:08 10° NNE 12:51:18 62° E 12:56:26 10° S
COSMOS 2455 4.4 12:48:04 10° WNW 12:51:21 15° WSW 12:54:37 10° SW
IGS 5A 3.9 12:48:25 10° N 12:52:06 36° WNW 12:55:45 10° SW
Cosmos 2322 Rocket 2.3 12:49:54 10° NNW 12:55:31 65° WSW 13:01:05 10° S
Cosmos 2285 Rocket 4.1 12:49:13 10° NNW 12:55:37 82° WSW 13:02:02 10° SSE
ATLAS 2AS CENTAUR R/B 3.0 12:50:01 10° SW 12:56:50 48° NW 13:03:30 10° NNE
Cosmos 773 Rocket 4.1 23:43:19 10° NNW 23:48:34 87° WSW 23:53:49 10° SSE
IRIDIUM 103 4.4 23:43:38 10° N 23:48:48 63° E 23:53:57 10° SSE
MOS 1 Rocket 4.2 23:45:04 10° SE 23:49:13 29° ENE 23:53:33 10° NNE
Cosmos 990 Rocket 4.0 23:44:50 10° SSW 23:49:57 89° WNW 23:55:06 10° NNE
EXPRESS MD2 3.2 23:49:24 10° WSW 23:51:30 37° NW 23:54:12 10° NE
Cosmos 2227 Rocket 3.0 23:47:05 10° N 23:51:51 27° ENE 23:56:34 10° ESE
Cosmos 2084 Rocket 4.3 23:48:26 10° N 23:52:02 27° NE 23:55:38 10° ESE
